Location: De Greiden
(52.9496°N, 5.9137°E)
Time: 22:13:46
(UTC+00:00)

Daily predictions for brighter satellites

Satellite Brightness Start Highest point End
(mag) Time Altitude Azimuth Time Altitude Azimuth Time Altitude Azimuth
Cosmos 2233 Rocket 4.1 17:05:50 10° N 17:12:01 56° ENE 17:18:12 10° SSE
Cosmos 2219 Rocket 3.7 17:07:07 10° NW 17:12:22 42° WSW 17:17:35 10° S
Meteor 2-16 Rocket 4.4 17:06:56 10° S 17:13:00 74° E 17:19:05 10° NNE
Cosmos 1900 4.4 17:08:08 10° SSW 17:13:12 77° SE 17:18:16 10° NE
Cosmos 1441 Rocket 3.4 17:14:16 10° SSW 17:17:35 62° WNW 17:20:53 10° N
SJ-6B 4.3 17:16:03 10° E 17:17:51 14° ENE 17:19:38 10° NNE
Cosmos 1867 3.7 17:13:53 10° SSW 17:19:16 67° SE 17:24:43 10° NE
Cosmos 1725 Rocket 4.0 17:13:17 10° N 17:19:34 85° E 17:25:51 10° S
CARTOSAT-1 4.3 17:16:16 10° SE 17:19:55 30° ENE 17:23:35 10° N
USA 267 3.4 17:13:37 10° ENE 17:20:10 70° SSE 17:26:42 10° SW
Aureole 3 Rocket 3.6 17:17:08 10° N 17:20:56 29° ENE 17:24:00 10° SE
NOSS 0 Rocket 4.0 17:16:12 10° NNW 17:22:30 79° NE 17:28:46 10° SE
Cosmos 2322 4.0 17:18:15 10° NNW 17:23:58 78° WSW 17:29:41 10° SSE
SJ-12 3.9 17:20:46 10° S 17:24:34 77° WSW 17:28:23 10° NNW
Cosmos 192 4.3 17:19:44 10° NNW 17:24:40 87° ENE 17:29:32 10° SSE
UNK 3.8 17:21:12 10° NNE 17:25:47 87° WNW 17:30:21 10° SSW
SL-08 R/B 4.4 17:19:53 10° N 17:26:06 78° E 17:32:12 10° SSE
Cosmos 2151 Rocket 3.6 17:25:25 10° N 17:29:56 75° ENE 17:34:26 10° SSE
SL-16 R/B 3.3 17:25:49 10° NNW 17:30:32 26° NE 17:35:13 10° E
Cosmos 1814 Rocket 4.0 17:28:10 10° SSW 17:33:25 70° ESE 17:38:38 10° NNE
Cosmos 2227 Rocket 3.8 17:32:06 10° ESE 17:34:37 13° E 17:36:55 10° ENE
SAR-Lupe-1 4.0 17:32:44 10° SSE 17:36:18 81° ENE 17:39:55 10° NNW
Cosmos 1315 Rocket 2.9 17:33:21 10° NNW 17:37:09 74° WSW 17:40:56 10° S
ATLAS 5 CENTAUR R/B 3.8 17:33:25 10° WNW 17:37:10 30° SW 17:41:38 10° S
Cosmos 1125 Rocket 3.4 17:32:05 10° NNW 17:37:17 73° ENE 17:42:29 10° SSE
Cosmos 2061 Rocket 4.0 17:30:54 10° N 17:37:19 73° ENE 17:43:37 10° SSE
Cosmos 1607 4.0 17:32:34 10° SSW 17:38:36 63° SE 17:44:43 10° NE
SL-16 R/B 3.6 17:35:20 10° N 17:41:15 48° WNW 17:47:09 10° SW
Cosmos 1455 Rocket 3.6 17:37:50 10° N 17:41:49 36° ENE 17:45:47 10° SE
ARIANE 6 FM1 Upper Stage 3.7 17:38:25 10° NW 17:41:55 29° NNE 17:44:43 14° ENE
CZ-4 R/B 4.5 17:38:36 10° SSE 17:42:34 81° WSW 17:46:35 10° NNW
CZ-4C R/B 2.0 17:40:13 10° SSW 17:44:26 56° SE 17:49:51 10° NE
DNEPR-1 R/B 4.2 17:40:05 10° NW 17:44:33 47° NE 17:49:46 10° ESE
BREEZE-M DEB (TANK) 3.8 17:40:32 10° W 17:44:42 52° SSW 17:50:57 10° SE
USA 306 4.2 17:42:30 10° W 17:44:45 19° SW 17:46:29 10° S
NOSS 3-3 (C) 4.1 17:40:03 10° SSW 17:45:03 46° ESE 17:51:01 10° NE
Cosmos 1975 Rocket 4.4 17:43:09 10° SE 17:46:00 17° E 17:48:50 10° NE
YAOGAN 1 2.4 17:43:15 10° SSE 17:47:30 79° ENE 17:51:47 10° NNW
Cosmos 158 Rocket 3.8 17:43:21 10° SSW 17:48:13 84° ESE 17:53:07 10° NNE
SeaSat 1 3.4 17:44:45 10° SSE 17:49:31 53° WSW 17:54:20 10° NW
SAR-Lupe-4 4.0 17:48:56 10° S 17:52:28 65° WSW 17:56:03 10° NNW
COSMO-SKYMED 1 2.7 17:51:15 10° NNE 17:55:15 46° E 17:59:13 10° S
Cosmos 2228 3.8 17:51:43 10° N 17:55:23 29° ENE 17:59:03 10° SE
NOAA 6 4.0 17:50:21 10° SSE 17:55:27 65° ENE 18:00:35 10° N
Spot 4 Rocket 3.9 17:50:55 10° SSE 17:56:01 78° ENE 18:01:09 10° NNW
Okean 1 Rocket 3.0 17:51:46 10° N 17:56:12 88° E 18:00:34 10° S
CZ-4 R/B 2.9 17:58:01 15° NE 17:58:01 15° NE 18:00:06 10° NNE
PSLV R/B 3.4 17:54:01 10° SSE 17:58:06 66° ENE 18:02:11 10° N
Okean 2 Rocket 3.2 17:54:07 10° NNW 17:58:32 78° W 18:02:53 10° S
Cosmos 2221 Rocket 3.6 17:56:20 10° S 18:00:44 62° E 18:05:13 10° NNE
Meteor 1-11 4.3 17:56:07 10° SSW 18:01:45 85° WNW 18:07:33 10° NNE
ARIANE 5 R/B 4.1 17:57:02 10° SSW 18:01:48 39° W 18:06:33 10° NNW
SPOT 5 3.9 18:00:21 14° ESE 18:03:44 28° ENE 18:08:01 10° N
BREEZE-M (TANK) 3.6 18:04:18 10° WSW 18:06:39 34° S 18:11:43 10° SE
Cosmos 1378 Rocket 4.3 18:03:56 10° SSW 18:08:09 53° WNW 18:12:22 10° N
Radarsat Rocket 4.1 18:03:17 10° SSE 18:09:10 85° WSW 18:15:37 10° NNW
RESURS DK-1 4.2 18:08:41 10° N 18:10:48 14° NNE 18:11:22 13° NE
CZ-2D R/B 3.7 18:07:26 10° S 18:11:20 69° WSW 18:15:22 10° NNW
Sich 1 Rocket 3.9 18:07:09 10° NNW 18:11:43 72° W 18:16:15 10° S
Cosmos 2082 Rocket 4.4 18:08:42 10° NW 18:12:00 15° NNW 18:15:19 10° NNE
NOSS 3-3 (A) 3.7 18:07:16 10° SW 18:12:31 74° SE 18:18:18 13° NE
ATLAS CENTAUR R/B 3.0 18:14:57 10° N 18:15:44 11° NNE 18:15:56 11° NNE
CSL-04 Rocket 4.2 18:11:33 12° SE 18:15:50 36° ENE 18:20:39 10° N
IRAS Rocket 4.2 18:12:12 10° SSE 18:17:46 68° ENE 18:23:22 10° NNW
SKYMED 2 3.9 18:13:55 10° N 18:18:15 68° WNW 18:22:33 10° SSW
Cosmos 2297 Rocket 2.3 18:12:56 10° S 18:18:27 55° ESE 18:23:59 10° NE
Cosmos 1943 4.4 18:14:58 10° NNW 18:19:40 25° NE 18:21:38 21° ENE
Cosmos 1025 Rocket 3.3 18:16:34 10° SSW 18:20:51 70° WNW 18:25:12 10° N
Orbus 7S? 4.5 18:11:36 10° WNW 18:21:37 82° SSW 18:24:45 20° SE
Cosmos 2150 Rocket 3.9 18:16:45 10° NNW 18:21:55 65° ENE 18:27:01 10° SE
Resurs 01 Rocket 1.5 18:19:14 10° SSE 18:23:38 86° ENE 18:28:05 10° NNW
Cosmos 2298 Rocket 4.0 18:18:59 10° NNW 18:24:17 65° ENE 18:29:31 10° SE
NOSS 3-4 (A) 3.8 18:22:58 10° NW 18:29:32 82° SW 18:37:19 10° SE
NOSS 3-4 (C) 3.8 18:23:13 10° NW 18:29:48 83° SW 18:37:37 10° SE
USA 290 4.3 18:28:07 10° WSW 18:30:53 26° NW 18:33:40 10° N
Cosmos 2344 4.2 18:24:36 10° S 18:30:57 28° ESE 18:32:55 25° E
Cosmos 1782 2.8 18:27:46 10° N 18:31:14 43° ENE 18:31:37 41° E
CRYOSAT 2 4.2 18:29:49 10° N 18:34:44 76° E 18:39:37 10° S
Lacrosse 5 rocket 1.5 18:40:42 10° W 18:44:09 48° NNW 18:44:56 40° NNE
CZ-4B R/B 3.8 18:43:54 42° SE 18:44:57 58° ENE 18:48:48 10° N
ATLAS 2AS CENTAUR R/B 3.8 18:41:02 10° WNW 18:47:16 35° N 18:51:31 18° NE
Cosmos 2263 Rocket 3.4 18:43:56 10° SSE 18:46:41 23° SE 18:46:41 23° SE
Cosmos 2237 Rocket 3.1 18:44:34 10° NW 18:50:01 49° WSW 18:55:28 10° S
Terra 3.0 18:51:39 26° NE 18:51:39 26° NE 18:54:39 10° N
SJ-6B 2.8 18:47:21 10° S 18:50:46 66° WSW 18:54:13 10° NNW
TSX-5 4.5 18:47:16 10° NNW 18:52:41 54° NE 18:53:39 46° E
Okean O Rocket 3.6 19:01:58 15° NNE 19:01:58 15° NNE 19:03:06 10° N
Cosmos 44 Rocket 3.3 18:56:42 10° SSW 19:01:33 58° SE 19:02:16 52° E
USA 267 3.4 18:59:49 30° ENE 19:03:15 70° NNW 19:09:45 10° W
ERS-1 Rocket 3.4 19:04:24 41° NE 19:04:24 41° NE 19:08:39 10° N
Meteor 1-31 Rocket 2.9 19:06:45 53° NNW 19:06:45 53° NNW 19:09:29 10° NNW
Cosmos 1816 Rocket 4.3 19:00:02 10° S 19:06:09 71° E 19:12:22 10° NNE
Cosmos 2034 Rocket 3.8 19:01:29 10° N 19:07:41 78° ENE 19:13:44 11° SSE
ADEOS 3.6 19:12:55 54° ENE 19:12:58 54° ENE 19:18:03 10° N
Cosmos 1544 Rocket 3.3 19:09:59 10° N 19:14:21 83° E 19:14:22 83° E
SL-16 R/B 2.1 19:09:41 10° NNW 19:15:24 89° ENE 19:17:18 44° SSE
Cosmos 1634 Rocket 4.0 19:09:46 10° N 19:16:01 55° ENE 19:17:03 50° ESE
Cosmos 2227 Rocket 2.1 19:11:59 10° SSW 19:17:35 68° ESE 19:18:49 52° ENE
Cosmos 1570 Rocket 4.4 19:15:08 10° SW 19:20:22 65° WNW 19:25:07 13° NNE
ARIANE 6 FM1 Upper Stage 2.9 19:17:23 10° NW 19:20:45 62° NW 19:20:45 62° NW
Cosmos 1975 Rocket 3.4 19:18:56 10° SSW 19:23:14 64° WNW 19:27:33 10° N
CZ-4 R/B 2.6 19:33:01 33° NNW 19:33:01 33° NNW 19:35:13 10° NNW
Cosmos 2228 4.5 19:28:36 10° NNW 19:32:25 35° W 19:36:14 10° SSW
CZ-4C R/B 3.0 19:28:17 10° W 19:32:50 43° NNW 19:35:03 30° NNE
NOSS 3-3 (C) 4.4 19:30:24 10° WSW 19:35:51 55° NNW 19:38:49 31° NNE
MetOp-B 4.1 19:39:24 73° NNE 19:39:24 73° NNE 19:44:23 10° NNW
Cosmos 2279 Rocket 4.2 19:33:50 10° N 19:39:08 53° NE 19:39:08 53° NE
CZ-4B R/B 3.0 19:40:18 78° NNE 19:40:18 78° NNE 19:45:22 10° NNW
Cosmos 2208 Rocket 4.4 19:35:01 10° SW 19:40:14 62° WNW 19:43:22 24° NNE
SPOT 5 3.5 19:39:23 33° SSW 19:41:20 56° W 19:46:22 10° NNW
MOS 1 4.2 19:43:59 77° SSE 19:44:26 90° WSW 19:50:10 10° NNW
CZ-4B DEB 4.4 19:43:20 46° S 19:44:54 69° WSW 19:50:22 10° NNW
RESURS DK-1 4.4 19:45:09 10° NNW 19:46:38 21° NNW 19:46:38 21° NNW
Cosmos 972 Rocket 4.3 19:46:13 10° NNW 19:50:16 61° NNW 19:50:16 61° NNW
Cosmos 2082 Rocket 4.4 19:56:02 10° NNW 19:58:39 13° N 19:59:23 13° NNE
Cosmos 2297 Rocket 3.5 19:57:30 10° WSW 20:02:44 37° NW 20:06:06 20° NNE
Cosmos 1943 3.5 19:58:46 10° NNW 20:03:26 60° NNW 20:03:26 60° NNW
Lacrosse 5 rocket 4.2 20:17:55 10° WNW 20:18:22 13° WNW 20:18:22 13° WNW
Tsikada Rocket 4.4 20:27:17 60° WNW 20:27:17 60° WNW 20:33:05 10° N
Terra 3.7 20:30:15 27° NW 20:30:15 27° NW 20:32:33 10° NNW
Cosmos 2263 Rocket 4.0 20:26:34 10° SW 20:28:28 22° SW 20:28:28 22° SW
Okean O Rocket 4.3 20:39:13 14° NNW 20:39:13 14° NNW 20:39:55 10° NNW
ATLAS 2AS CENTAUR R/B 3.6 20:33:24 10° NW 20:38:56 38° N 20:38:56 38° N
Cosmos 2344 3.7 20:36:56 10° SW 20:42:59 60° WSW 20:42:59 60° WSW
USA 267 3.7 20:47:08 57° NW 20:47:08 57° NW 20:52:30 10° WNW
SL-16 R/B 4.3 20:54:53 10° WNW 20:58:45 19° W 20:59:11 19° WSW
Cosmos 2227 Rocket 3.9 20:57:01 10° WSW 21:00:43 29° WNW 21:00:43 29° WNW
CZ-4C R/B 4.3 21:17:36 10° WNW 21:20:01 23° NW 21:20:01 23° NW
